Year,Month,Day,Hour,Minute,Value (Times are PST for temperature in C)
2008,04,01,00,00,-0.40
2008,04,01,00,01,-0.40
2008,04,01,00,02,-0.50
2008,04,01,00,03,-0.50
2008,04,01,00,04,-0.50
2008,04,01,00,05,-0.50
2008,04,01,00,06,-0.50
2008,04,01,00,07,-0.60
2008,04,01,00,08,-0.60
2008,04,01,00,09,-0.60
2008,04,01,00,10,-0.50
2008,04,01,00,11,-0.50
2008,04,01,00,12,-0.50
2008,04,01,00,13,-0.50
2008,04,01,00,14,-0.50
2008,04,01,00,15,-0.50
2008,04,01,00,16,-0.50
2008,04,01,00,17,-0.50
2008,04,01,00,18,-0.50
2008,04,01,00,19,-0.50
2008,04,01,00,20,-0.50
2008,04,01,00,21,-0.50
2008,04,01,00,22,-0.50
2008,04,01,00,23,-0.50
2008,04,01,00,24,-0.50
2008,04,01,00,25,-0.50
2008,04,01,00,26,-0.50
2008,04,01,00,27,-0.50
2008,04,01,00,28,-0.50
2008,04,01,00,29,-0.50
2008,04,01,00,30,-0.50
2008,04,01,00,31,-0.50
2008,04,01,00,32,-0.50
2008,04,01,00,33,-0.60
2008,04,01,00,34,-0.60
2008,04,01,00,35,-0.60
2008,04,01,00,36,-0.60
2008,04,01,00,37,-0.60
2008,04,01,00,38,-0.70
2008,04,01,00,39,-0.70
2008,04,01,00,40,-0.70
2008,04,01,00,41,-0.70
2008,04,01,00,42,-0.70
2008,04,01,00,43,-0.70
2008,04,01,00,44,-0.70
2008,04,01,00,45,-0.70
2008,04,01,00,46,-0.70
2008,04,01,00,47,-0.70
2008,04,01,00,48,-0.70
2008,04,01,00,49,-0.70
2008,04,01,00,50,-0.70
2008,04,01,00,51,-0.70
2008,04,01,00,52,-0.70
2008,04,01,00,53,-0.70
2008,04,01,00,54,-0.70
2008,04,01,00,55,-0.70
2008,04,01,00,56,-0.70
2008,04,01,00,57,-0.70
2008,04,01,00,58,-0.70
2008,04,01,00,59,-0.60
2008,04,01,01,00,-0.50
2008,04,01,01,01,-0.30
2008,04,01,01,02,-0.10
2008,04,01,01,03,0.20
2008,04,01,01,04,0.50
2008,04,01,01,05,0.70
2008,04,01,01,06,1.10
2008,04,01,01,07,1.30
2008,04,01,01,08,1.50
2008,04,01,01,09,1.70
2008,04,01,01,10,1.90
2008,04,01,01,11,2.00
2008,04,01,01,12,2.10
2008,04,01,01,13,2.20
2008,04,01,01,14,2.30
2008,04,01,01,15,2.30
2008,04,01,01,16,2.40
2008,04,01,01,17,2.40
2008,04,01,01,18,2.40
2008,04,01,01,19,2.50
2008,04,01,01,20,2.50
2008,04,01,01,21,2.60
2008,04,01,01,22,2.60
2008,04,01,01,23,2.70
2008,04,01,01,24,2.70
2008,04,01,01,25,2.70
2008,04,01,01,26,2.80
2008,04,01,01,27,2.80
2008,04,01,01,28,2.80
2008,04,01,01,29,2.90
2008,04,01,01,30,2.90
2008,04,01,01,31,2.90
2008,04,01,01,32,3.00
2008,04,01,01,33,3.00
2008,04,01,01,34,3.10
2008,04,01,01,35,3.10
2008,04,01,01,36,3.10
2008,04,01,01,37,3.10
2008,04,01,01,38,3.10
2008,04,01,01,39,3.10
2008,04,01,01,40,3.10
2008,04,01,01,41,3.10
2008,04,01,01,42,3.10
2008,04,01,01,43,3.10
2008,04,01,01,44,3.10
2008,04,01,01,45,3.10
2008,04,01,01,46,3.10
2008,04,01,01,47,3.10
2008,04,01,01,48,3.10
2008,04,01,01,49,3.10
2008,04,01,01,50,3.10
2008,04,01,01,51,3.10
2008,04,01,01,52,3.00
2008,04,01,01,53,3.00
2008,04,01,01,54,3.00
2008,04,01,01,55,3.00
2008,04,01,01,56,3.00
2008,04,01,01,57,3.00
2008,04,01,01,58,3.00
2008,04,01,01,59,3.00
2008,04,01,02,00,3.00
2008,04,01,02,01,2.90
2008,04,01,02,02,3.00
2008,04,01,02,03,3.00
2008,04,01,02,04,3.00
2008,04,01,02,05,3.00
2008,04,01,02,06,2.90
2008,04,01,02,07,2.90
2008,04,01,02,08,2.90
2008,04,01,02,09,2.90
2008,04,01,02,10,2.90
2008,04,01,02,11,2.90
2008,04,01,02,12,2.90
2008,04,01,02,13,2.90
2008,04,01,02,14,2.80
2008,04,01,02,15,2.80
2008,04,01,02,16,2.80
2008,04,01,02,17,2.80
2008,04,01,02,18,2.80
2008,04,01,02,19,2.80
2008,04,01,02,20,2.80
2008,04,01,02,21,2.80
2008,04,01,02,22,2.80
2008,04,01,02,23,2.80
2008,04,01,02,24,2.70
2008,04,01,02,25,2.70
2008,04,01,02,26,2.70
2008,04,01,02,27,2.70
2008,04,01,02,28,2.70
2008,04,01,02,29,2.70
2008,04,01,02,30,2.70
2008,04,01,02,31,2.70
2008,04,01,02,32,2.70
2008,04,01,02,33,2.70
2008,04,01,02,34,2.70
2008,04,01,02,35,2.70
2008,04,01,02,36,2.70
2008,04,01,02,37,2.70
2008,04,01,02,38,2.80
2008,04,01,02,39,2.80
2008,04,01,02,40,2.80
2008,04,01,02,41,2.80
2008,04,01,02,42,2.80
2008,04,01,02,43,2.80
2008,04,01,02,44,2.70
2008,04,01,02,45,2.70
2008,04,01,02,46,2.70
2008,04,01,02,47,2.70
2008,04,01,02,48,2.80
2008,04,01,02,49,2.80
2008,04,01,02,50,2.80
2008,04,01,02,51,2.80
2008,04,01,02,52,2.90
2008,04,01,02,53,2.90
2008,04,01,02,54,2.90
2008,04,01,02,55,2.90
2008,04,01,02,56,2.90
2008,04,01,02,57,2.90
2008,04,01,02,58,2.90
2008,04,01,02,59,2.90
2008,04,01,03,00,2.90
2008,04,01,03,01,3.00
2008,04,01,03,02,2.90
2008,04,01,03,03,2.90
2008,04,01,03,04,2.90
2008,04,01,03,05,2.90
2008,04,01,03,06,2.90
2008,04,01,03,07,2.90
2008,04,01,03,08,2.90
2008,04,01,03,09,2.90
2008,04,01,03,10,2.90
2008,04,01,03,11,3.00
2008,04,01,03,12,3.00
2008,04,01,03,13,3.00
2008,04,01,03,14,3.00
2008,04,01,03,15,3.00
2008,04,01,03,16,3.00
2008,04,01,03,17,2.90
2008,04,01,03,18,2.90
2008,04,01,03,19,2.90
2008,04,01,03,20,2.90
2008,04,01,03,21,2.80
2008,04,01,03,22,2.80
2008,04,01,03,23,2.80
2008,04,01,03,24,2.80
2008,04,01,03,25,2.70
2008,04,01,03,26,2.70
2008,04,01,03,27,2.60
2008,04,01,03,28,2.60
2008,04,01,03,29,2.60
2008,04,01,03,30,2.50
2008,04,01,03,31,2.50
2008,04,01,03,32,2.50
2008,04,01,03,33,2.40
2008,04,01,03,34,2.40
2008,04,01,03,35,2.40
2008,04,01,03,36,2.40
2008,04,01,03,37,2.40
2008,04,01,03,38,2.40
2008,04,01,03,39,2.40
2008,04,01,03,40,2.40
2008,04,01,03,41,2.40
2008,04,01,03,42,2.40
2008,04,01,03,43,2.40
2008,04,01,03,44,2.40
2008,04,01,03,45,2.40
2008,04,01,03,46,2.40
2008,04,01,03,47,2.40
2008,04,01,03,48,2.40
2008,04,01,03,49,2.40
2008,04,01,03,50,2.40
2008,04,01,03,51,2.40
2008,04,01,03,52,2.40
2008,04,01,03,53,2.40
2008,04,01,03,54,2.40
2008,04,01,03,55,2.40
2008,04,01,03,56,2.40
2008,04,01,03,57,2.40
2008,04,01,03,58,2.40
2008,04,01,03,59,2.40
2008,04,01,04,00,2.40
2008,04,01,04,01,2.40
2008,04,01,04,02,2.40
2008,04,01,04,03,2.40
2008,04,01,04,04,2.40
2008,04,01,04,05,2.40
2008,04,01,04,06,2.40
2008,04,01,04,07,2.40
2008,04,01,04,08,2.40
2008,04,01,04,09,2.40
2008,04,01,04,10,2.40
2008,04,01,04,11,2.40
2008,04,01,04,12,2.40
2008,04,01,04,13,2.40
2008,04,01,04,14,2.40
2008,04,01,04,15,2.40
2008,04,01,04,16,2.40
2008,04,01,04,17,2.40
2008,04,01,04,18,2.40
2008,04,01,04,19,2.40
2008,04,01,04,20,2.50
2008,04,01,04,21,2.50
2008,04,01,04,22,2.50
2008,04,01,04,23,2.50
2008,04,01,04,24,2.50
2008,04,01,04,25,2.50
2008,04,01,04,26,2.50
2008,04,01,04,27,2.50
2008,04,01,04,28,2.40
2008,04,01,04,29,2.40
2008,04,01,04,30,2.40
2008,04,01,04,31,2.40
2008,04,01,04,32,2.40
2008,04,01,04,33,2.40
2008,04,01,04,34,2.40
2008,04,01,04,35,2.30
2008,04,01,04,36,2.30
2008,04,01,04,37,2.30
2008,04,01,04,38,2.20
2008,04,01,04,39,2.20
2008,04,01,04,40,2.20
2008,04,01,04,41,2.20
2008,04,01,04,42,2.20
2008,04,01,04,43,2.10
2008,04,01,04,44,2.10
2008,04,01,04,45,2.10
2008,04,01,04,46,2.10
2008,04,01,04,47,2.10
2008,04,01,04,48,2.10
2008,04,01,04,49,2.10
2008,04,01,04,50,2.20
2008,04,01,04,51,2.20
2008,04,01,04,52,2.20
2008,04,01,04,53,2.20
2008,04,01,04,54,2.20
2008,04,01,04,55,2.20
2008,04,01,04,56,2.20
2008,04,01,04,57,2.20
2008,04,01,04,58,2.20
2008,04,01,04,59,2.20
2008,04,01,05,00,2.20
2008,04,01,05,01,2.10
2008,04,01,05,02,2.10
2008,04,01,05,03,2.10
2008,04,01,05,04,2.10
2008,04,01,05,05,2.10
2008,04,01,05,06,2.00
2008,04,01,05,07,2.00
2008,04,01,05,08,2.00
2008,04,01,05,09,2.00
2008,04,01,05,10,1.90
2008,04,01,05,11,1.90
2008,04,01,05,12,1.90
2008,04,01,05,13,1.90
2008,04,01,05,14,1.90
2008,04,01,05,15,1.90
2008,04,01,05,16,1.90
2008,04,01,05,17,2.00
2008,04,01,05,18,2.00
2008,04,01,05,19,2.00
2008,04,01,05,20,2.00
2008,04,01,05,21,2.00
2008,04,01,05,22,2.10
2008,04,01,05,23,2.10
2008,04,01,05,24,2.10
2008,04,01,05,25,2.10
2008,04,01,05,26,2.10
2008,04,01,05,27,2.10
2008,04,01,05,28,2.10
2008,04,01,05,29,2.10
2008,04,01,05,30,2.10
2008,04,01,05,31,2.10
2008,04,01,05,32,2.10
2008,04,01,05,33,2.10
2008,04,01,05,34,2.10
2008,04,01,05,35,2.10
2008,04,01,05,36,2.00
2008,04,01,05,37,2.00
2008,04,01,05,38,2.00
2008,04,01,05,39,2.00
2008,04,01,05,40,2.00
2008,04,01,05,41,2.00
2008,04,01,05,42,2.00
2008,04,01,05,43,1.90
2008,04,01,05,44,2.00
2008,04,01,05,45,2.00
2008,04,01,05,46,2.00
2008,04,01,05,47,2.00
2008,04,01,05,48,2.00
2008,04,01,05,49,2.00
2008,04,01,05,50,2.00
2008,04,01,05,51,2.00
2008,04,01,05,52,2.00
2008,04,01,05,53,2.00
2008,04,01,05,54,2.00
2008,04,01,05,55,2.00
2008,04,01,05,56,2.00
2008,04,01,05,57,2.00
2008,04,01,05,58,2.00
2008,04,01,05,59,2.00
2008,04,01,06,00,2.00
2008,04,01,06,01,2.00
2008,04,01,06,02,2.00
2008,04,01,06,03,1.90
2008,04,01,06,04,1.90
2008,04,01,06,05,1.90
2008,04,01,06,06,1.90
2008,04,01,06,07,1.90
2008,04,01,06,08,1.90
2008,04,01,06,09,1.90
2008,04,01,06,10,1.90
2008,04,01,06,11,1.90
2008,04,01,06,12,1.90
2008,04,01,06,13,1.90
2008,04,01,06,14,1.90
2008,04,01,06,15,1.90
2008,04,01,06,16,1.90
2008,04,01,06,17,1.90
2008,04,01,06,18,1.90
2008,04,01,06,19,1.90
2008,04,01,06,20,1.90
2008,04,01,06,21,1.90
2008,04,01,06,22,1.90
2008,04,01,06,23,1.90
2008,04,01,06,24,1.90
2008,04,01,06,25,1.90
2008,04,01,06,26,1.90
2008,04,01,06,27,1.90
2008,04,01,06,28,1.90
2008,04,01,06,29,1.90
2008,04,01,06,30,1.90
2008,04,01,06,31,1.90
2008,04,01,06,32,1.90
2008,04,01,06,33,1.90
2008,04,01,06,34,1.80
2008,04,01,06,35,1.80
2008,04,01,06,36,1.80
2008,04,01,06,37,1.80
2008,04,01,06,38,1.80
2008,04,01,06,39,1.80
2008,04,01,06,40,1.80
2008,04,01,06,41,1.80
2008,04,01,06,42,1.80
2008,04,01,06,43,1.80
2008,04,01,06,44,1.80
2008,04,01,06,45,1.80
2008,04,01,06,46,1.80
2008,04,01,06,47,1.80
2008,04,01,06,48,1.70
2008,04,01,06,49,1.70
2008,04,01,06,50,1.70
2008,04,01,06,51,1.70
2008,04,01,06,52,1.70
2008,04,01,06,53,1.60
2008,04,01,06,54,1.60
2008,04,01,06,55,1.60
2008,04,01,06,56,1.60
2008,04,01,06,57,1.60
2008,04,01,06,58,1.60
2008,04,01,06,59,1.60
2008,04,01,07,00,1.60
2008,04,01,07,01,1.60
2008,04,01,07,02,1.60
2008,04,01,07,03,1.60
2008,04,01,07,04,1.60
2008,04,01,07,05,1.60
2008,04,01,07,06,1.60
2008,04,01,07,07,1.60
2008,04,01,07,08,1.60
2008,04,01,07,09,1.60
2008,04,01,07,10,1.60
2008,04,01,07,11,1.60
2008,04,01,07,12,1.60
2008,04,01,07,13,1.60
2008,04,01,07,14,1.60
2008,04,01,07,15,1.60
2008,04,01,07,16,1.60
2008,04,01,07,17,1.60
2008,04,01,07,18,1.60
2008,04,01,07,19,1.60
2008,04,01,07,20,1.60
2008,04,01,07,21,1.60
2008,04,01,07,22,1.70
2008,04,01,07,23,1.70
2008,04,01,07,24,1.70
2008,04,01,07,25,1.70
2008,04,01,07,26,1.70
2008,04,01,07,27,1.70
2008,04,01,07,28,1.70
2008,04,01,07,29,1.70
2008,04,01,07,30,1.70
2008,04,01,07,31,1.70
2008,04,01,07,32,1.70
2008,04,01,07,33,1.70
2008,04,01,07,34,1.70
2008,04,01,07,35,1.70
2008,04,01,07,36,1.70
2008,04,01,07,37,1.70
2008,04,01,07,38,1.80
2008,04,01,07,39,1.80
2008,04,01,07,40,1.80
2008,04,01,07,41,1.80
2008,04,01,07,42,1.80
2008,04,01,07,43,1.80
2008,04,01,07,44,1.80
2008,04,01,07,45,1.80
2008,04,01,07,46,1.80
2008,04,01,07,47,1.90
2008,04,01,07,48,1.90
2008,04,01,07,49,1.90
2008,04,01,07,50,1.90
2008,04,01,07,51,1.90
2008,04,01,07,52,2.00
2008,04,01,07,53,2.00
2008,04,01,07,54,2.00
2008,04,01,07,55,2.10
2008,04,01,07,56,2.10
2008,04,01,07,57,2.20
2008,04,01,07,58,2.20
2008,04,01,07,59,2.20
2008,04,01,08,00,2.30
2008,04,01,08,01,2.30
2008,04,01,08,02,2.30
2008,04,01,08,03,2.40
2008,04,01,08,04,2.40
2008,04,01,08,05,2.50
2008,04,01,08,06,2.50
2008,04,01,08,07,2.60
2008,04,01,08,08,2.60
2008,04,01,08,09,2.70
2008,04,01,08,10,2.70
2008,04,01,08,11,2.80
2008,04,01,08,12,2.80
2008,04,01,08,13,2.90
2008,04,01,08,14,2.90
2008,04,01,08,15,3.00
2008,04,01,08,16,3.10
2008,04,01,08,17,3.10
2008,04,01,08,18,3.20
2008,04,01,08,19,3.20
2008,04,01,08,20,3.30
2008,04,01,08,21,3.30
2008,04,01,08,22,3.40
2008,04,01,08,23,3.50
2008,04,01,08,24,3.50
2008,04,01,08,25,3.60
2008,04,01,08,26,3.60
2008,04,01,08,27,3.70
2008,04,01,08,28,3.70
2008,04,01,08,29,3.80
2008,04,01,08,30,3.80
2008,04,01,08,31,3.90
2008,04,01,08,32,4.00
2008,04,01,08,33,4.00
2008,04,01,08,34,4.10
2008,04,01,08,35,4.20
2008,04,01,08,36,4.20
2008,04,01,08,37,4.30
2008,04,01,08,38,4.30
2008,04,01,08,39,4.40
2008,04,01,08,40,4.40
2008,04,01,08,41,4.50
2008,04,01,08,42,4.60
2008,04,01,08,43,4.60
2008,04,01,08,44,4.70
2008,04,01,08,45,4.70
2008,04,01,08,46,4.80
2008,04,01,08,47,4.80
2008,04,01,08,48,4.80
2008,04,01,08,49,4.80
2008,04,01,08,50,4.80
2008,04,01,08,51,4.80
2008,04,01,08,52,4.90
2008,04,01,08,53,4.90
2008,04,01,08,54,4.90
2008,04,01,08,55,4.90
2008,04,01,08,56,4.90
2008,04,01,08,57,4.90
2008,04,01,08,58,4.90
2008,04,01,08,59,4.90
2008,04,01,09,00,4.90
2008,04,01,09,01,4.90
2008,04,01,09,02,4.90
2008,04,01,09,03,4.80
2008,04,01,09,04,4.80
2008,04,01,09,05,4.80
2008,04,01,09,06,4.80
2008,04,01,09,07,4.80
2008,04,01,09,08,4.80
2008,04,01,09,09,4.80
2008,04,01,09,10,4.80
2008,04,01,09,11,4.90
2008,04,01,09,12,4.90
2008,04,01,09,13,4.90
2008,04,01,09,14,5.00
2008,04,01,09,15,5.10
2008,04,01,09,16,5.10
2008,04,01,09,17,5.10
2008,04,01,09,18,5.10
2008,04,01,09,19,5.10
2008,04,01,09,20,5.20
2008,04,01,09,21,5.20
2008,04,01,09,22,5.30
2008,04,01,09,23,5.30
2008,04,01,09,24,5.30
2008,04,01,09,25,5.30
2008,04,01,09,26,5.30
2008,04,01,09,27,5.30
2008,04,01,09,28,5.30
2008,04,01,09,29,5.30
2008,04,01,09,30,5.30
2008,04,01,09,31,5.30
2008,04,01,09,32,5.30
2008,04,01,09,33,5.30
2008,04,01,09,34,5.30
2008,04,01,09,35,5.40
2008,04,01,09,36,5.40
2008,04,01,09,37,5.40
2008,04,01,09,38,5.40
2008,04,01,09,39,5.40
2008,04,01,09,40,5.50
2008,04,01,09,41,5.50
2008,04,01,09,42,5.60
2008,04,01,09,43,5.60
2008,04,01,09,44,5.60
2008,04,01,09,45,5.60
2008,04,01,09,46,5.60
2008,04,01,09,47,5.60
2008,04,01,09,48,5.70
2008,04,01,09,49,5.70
2008,04,01,09,50,5.70
2008,04,01,09,51,5.80
2008,04,01,09,52,5.80
2008,04,01,09,53,5.90
2008,04,01,09,54,5.90
2008,04,01,09,55,5.90
2008,04,01,09,56,5.90
2008,04,01,09,57,5.90
2008,04,01,09,58,5.90
2008,04,01,09,59,5.90
2008,04,01,10,00,5.90
2008,04,01,10,01,5.80
2008,04,01,10,02,5.80
2008,04,01,10,03,5.80
2008,04,01,10,04,5.90
2008,04,01,10,05,5.90
2008,04,01,10,06,5.90
2008,04,01,10,07,5.90
2008,04,01,10,08,5.90
2008,04,01,10,09,5.90
2008,04,01,10,10,5.90
2008,04,01,10,11,5.80
2008,04,01,10,12,5.80
2008,04,01,10,13,5.70
2008,04,01,10,14,5.60
2008,04,01,10,15,5.60
2008,04,01,10,16,5.60
2008,04,01,10,17,5.60
2008,04,01,10,18,5.60
2008,04,01,10,19,5.60
2008,04,01,10,20,5.60
2008,04,01,10,21,5.60
2008,04,01,10,22,5.70
2008,04,01,10,23,5.70
2008,04,01,10,24,5.70
2008,04,01,10,25,5.70
2008,04,01,10,26,5.70
2008,04,01,10,27,5.80
2008,04,01,10,28,5.80
2008,04,01,10,29,5.80
2008,04,01,10,30,5.80
2008,04,01,10,31,5.80
2008,04,01,10,32,5.80
2008,04,01,10,33,5.80
2008,04,01,10,34,5.70
2008,04,01,10,35,5.70
2008,04,01,10,36,5.70
2008,04,01,10,37,5.70
2008,04,01,10,38,5.70
2008,04,01,10,39,5.60
2008,04,01,10,40,5.60
2008,04,01,10,41,5.50
2008,04,01,10,42,5.40
2008,04,01,10,43,5.40
2008,04,01,10,44,5.40
2008,04,01,10,45,5.40
2008,04,01,10,46,5.40
2008,04,01,10,47,5.30
2008,04,01,10,48,5.30
2008,04,01,10,49,5.30
2008,04,01,10,50,5.30
2008,04,01,10,51,5.30
2008,04,01,10,52,5.30
2008,04,01,10,53,5.30
2008,04,01,10,54,5.40
2008,04,01,10,55,5.40
2008,04,01,10,56,5.40
2008,04,01,10,57,5.40
2008,04,01,10,58,5.40
2008,04,01,10,59,5.50
2008,04,01,11,00,5.50
2008,04,01,11,01,5.60
2008,04,01,11,02,5.70
2008,04,01,11,03,5.80
2008,04,01,11,04,5.90
2008,04,01,11,05,6.00
2008,04,01,11,06,6.00
2008,04,01,11,07,6.10
2008,04,01,11,08,6.20
2008,04,01,11,09,6.20
2008,04,01,11,10,6.30
2008,04,01,11,11,6.30
2008,04,01,11,12,6.20
2008,04,01,11,13,6.20
2008,04,01,11,14,6.10
2008,04,01,11,15,6.10
2008,04,01,11,16,6.00
2008,04,01,11,17,5.90
2008,04,01,11,18,6.00
2008,04,01,11,19,6.10
2008,04,01,11,20,6.10
2008,04,01,11,21,6.20
2008,04,01,11,22,6.20
2008,04,01,11,23,6.20
2008,04,01,11,24,6.30
2008,04,01,11,25,6.30
2008,04,01,11,26,6.30
2008,04,01,11,27,6.30
2008,04,01,11,28,6.30
2008,04,01,11,29,6.30
2008,04,01,11,30,6.20
2008,04,01,11,31,6.20
2008,04,01,11,32,6.20
2008,04,01,11,33,6.20
2008,04,01,11,34,6.10
2008,04,01,11,35,6.10
2008,04,01,11,36,6.20
2008,04,01,11,37,6.20
2008,04,01,11,38,6.30
2008,04,01,11,39,6.30
2008,04,01,11,40,6.30
2008,04,01,11,41,6.40
2008,04,01,11,42,6.30
2008,04,01,11,43,6.30
2008,04,01,11,44,6.30
2008,04,01,11,45,6.20
2008,04,01,11,46,6.20
2008,04,01,11,47,6.20
2008,04,01,11,48,6.20
2008,04,01,11,49,6.20
2008,04,01,11,50,6.20
2008,04,01,11,51,6.30
2008,04,01,11,52,6.30
2008,04,01,11,53,6.30
2008,04,01,11,54,6.30
2008,04,01,11,55,6.30
2008,04,01,11,56,6.30
2008,04,01,11,57,6.40
2008,04,01,11,58,6.40
2008,04,01,11,59,6.40
2008,04,01,12,00,6.50
2008,04,01,12,01,6.40
2008,04,01,12,02,6.30
2008,04,01,12,03,6.30
2008,04,01,12,04,6.30
2008,04,01,12,05,6.40
2008,04,01,12,06,6.50
2008,04,01,12,07,6.40
2008,04,01,12,08,6.30
2008,04,01,12,09,6.30
2008,04,01,12,10,6.30
2008,04,01,12,11,6.30
2008,04,01,12,12,6.30
2008,04,01,12,13,6.30
2008,04,01,12,14,6.40
2008,04,01,12,15,6.50
2008,04,01,12,16,6.50
2008,04,01,12,17,6.50
2008,04,01,12,18,6.60
2008,04,01,12,19,6.60
2008,04,01,12,20,6.60
2008,04,01,12,21,6.60
2008,04,01,12,22,6.70
2008,04,01,12,23,6.80
2008,04,01,12,24,6.80
2008,04,01,12,25,6.80
2008,04,01,12,26,6.70
2008,04,01,12,27,6.70
2008,04,01,12,28,6.60
2008,04,01,12,29,6.60
2008,04,01,12,30,6.50
2008,04,01,12,31,6.50
2008,04,01,12,32,6.40
2008,04,01,12,33,6.40
2008,04,01,12,34,6.40
2008,04,01,12,35,6.40
2008,04,01,12,36,6.40
2008,04,01,12,37,6.50
2008,04,01,12,38,6.50
2008,04,01,12,39,6.60
2008,04,01,12,40,6.70
2008,04,01,12,41,6.70
2008,04,01,12,42,6.70
2008,04,01,12,43,6.70
2008,04,01,12,44,6.70
2008,04,01,12,45,6.70
2008,04,01,12,46,6.70
2008,04,01,12,47,6.70
2008,04,01,12,48,6.60
2008,04,01,12,49,6.50
2008,04,01,12,50,6.40
2008,04,01,12,51,6.40
2008,04,01,12,52,6.40
2008,04,01,12,53,6.40
2008,04,01,12,54,6.40
2008,04,01,12,55,6.40
2008,04,01,12,56,6.50
2008,04,01,12,57,6.50
2008,04,01,12,58,6.60
2008,04,01,12,59,6.60
2008,04,01,13,00,6.60
2008,04,01,13,01,6.60
2008,04,01,13,02,6.60
2008,04,01,13,03,6.50
2008,04,01,13,04,6.60
2008,04,01,13,05,6.60
2008,04,01,13,06,6.60
2008,04,01,13,07,6.60
2008,04,01,13,08,6.50
2008,04,01,13,09,6.40
2008,04,01,13,10,6.40
2008,04,01,13,11,6.40
2008,04,01,13,12,6.40
2008,04,01,13,13,6.40
2008,04,01,13,14,6.50
2008,04,01,13,15,6.50
2008,04,01,13,16,6.60
2008,04,01,13,17,6.50
2008,04,01,13,18,6.50
2008,04,01,13,19,6.50
2008,04,01,13,20,6.60
2008,04,01,13,21,6.70
2008,04,01,13,22,6.70
2008,04,01,13,23,6.80
2008,04,01,13,24,6.80
2008,04,01,13,25,6.80
2008,04,01,13,26,6.80
2008,04,01,13,27,6.80
2008,04,01,13,28,6.80
2008,04,01,13,29,6.80
2008,04,01,13,30,6.80
2008,04,01,13,31,6.80
2008,04,01,13,32,6.80
2008,04,01,13,33,6.80
2008,04,01,13,34,6.80
2008,04,01,13,35,6.80
2008,04,01,13,36,6.70
2008,04,01,13,37,6.70
2008,04,01,13,38,6.70
2008,04,01,13,39,6.70
2008,04,01,13,40,6.70
2008,04,01,13,41,6.70
2008,04,01,13,42,6.80
2008,04,01,13,43,6.80
2008,04,01,13,44,6.70
2008,04,01,13,45,6.70
2008,04,01,13,46,6.70
2008,04,01,13,47,6.80
2008,04,01,13,48,6.80
2008,04,01,13,49,6.80
2008,04,01,13,50,6.80
2008,04,01,13,51,6.80
2008,04,01,13,52,6.80
2008,04,01,13,53,6.90
2008,04,01,13,54,6.80
2008,04,01,13,55,6.70
2008,04,01,13,56,6.60
2008,04,01,13,57,6.50
2008,04,01,13,58,6.40
2008,04,01,13,59,6.30
2008,04,01,14,00,6.30
2008,04,01,14,01,6.30
2008,04,01,14,02,6.40
2008,04,01,14,03,6.50
2008,04,01,14,04,6.50
2008,04,01,14,05,6.60
2008,04,01,14,06,6.60
2008,04,01,14,07,6.60
2008,04,01,14,08,6.70
2008,04,01,14,09,6.70
2008,04,01,14,10,6.70
2008,04,01,14,11,6.60
2008,04,01,14,12,6.60
2008,04,01,14,13,6.60
2008,04,01,14,14,6.60
2008,04,01,14,15,6.70
2008,04,01,14,16,6.70
2008,04,01,14,17,6.70
2008,04,01,14,18,6.70
2008,04,01,14,19,6.70
2008,04,01,14,20,6.70
2008,04,01,14,21,6.80
2008,04,01,14,22,6.80
2008,04,01,14,23,6.80
2008,04,01,14,24,6.80
2008,04,01,14,25,6.90
2008,04,01,14,26,7.00
2008,04,01,14,27,7.10
2008,04,01,14,28,7.20
2008,04,01,14,29,7.20
2008,04,01,14,30,7.20
2008,04,01,14,31,7.20
2008,04,01,14,32,7.20
2008,04,01,14,33,7.30
2008,04,01,14,34,7.40
2008,04,01,14,35,7.40
2008,04,01,14,36,7.40
2008,04,01,14,37,7.40
2008,04,01,14,38,7.30
2008,04,01,14,39,7.30
2008,04,01,14,40,7.20
2008,04,01,14,41,7.20
2008,04,01,14,42,7.20
2008,04,01,14,43,7.20
2008,04,01,14,44,7.20
2008,04,01,14,45,7.20
2008,04,01,14,46,7.20
2008,04,01,14,47,7.30
2008,04,01,14,48,7.40
2008,04,01,14,49,7.40
2008,04,01,14,50,7.50
2008,04,01,14,51,7.60
2008,04,01,14,52,7.60
2008,04,01,14,53,7.60
2008,04,01,14,54,7.60
2008,04,01,14,55,7.70
2008,04,01,14,56,7.70
2008,04,01,14,57,7.70
2008,04,01,14,58,7.70
2008,04,01,14,59,7.80
2008,04,01,15,00,7.80
2008,04,01,15,01,7.90
2008,04,01,15,02,7.90
2008,04,01,15,03,7.90
2008,04,01,15,04,7.90
2008,04,01,15,05,7.90
2008,04,01,15,06,7.80
2008,04,01,15,07,7.90
2008,04,01,15,08,7.90
2008,04,01,15,09,7.90
2008,04,01,15,10,8.00
2008,04,01,15,11,8.00
2008,04,01,15,12,8.10
2008,04,01,15,13,8.10
2008,04,01,15,14,8.10
2008,04,01,15,15,8.20
2008,04,01,15,16,8.10
2008,04,01,15,17,8.00
2008,04,01,15,18,7.90
2008,04,01,15,19,7.90
2008,04,01,15,20,7.90
2008,04,01,15,21,7.90
2008,04,01,15,22,7.90
2008,04,01,15,23,7.90
2008,04,01,15,24,7.90
2008,04,01,15,25,7.90
2008,04,01,15,26,7.90
2008,04,01,15,27,7.90
2008,04,01,15,28,7.90
2008,04,01,15,29,7.90
2008,04,01,15,30,7.90
2008,04,01,15,31,7.90
2008,04,01,15,32,7.90
2008,04,01,15,33,7.90
2008,04,01,15,34,7.90
2008,04,01,15,35,7.90
2008,04,01,15,36,7.90
2008,04,01,15,37,7.90
2008,04,01,15,38,7.90
2008,04,01,15,39,7.90
2008,04,01,15,40,7.90
2008,04,01,15,41,7.80
2008,04,01,15,42,7.80
2008,04,01,15,43,7.80
2008,04,01,15,44,7.80
2008,04,01,15,45,7.70
2008,04,01,15,46,7.70
2008,04,01,15,47,7.70
2008,04,01,15,48,7.70
2008,04,01,15,49,7.70
2008,04,01,15,50,7.70
2008,04,01,15,51,7.70
2008,04,01,15,52,7.70
2008,04,01,15,53,7.70
2008,04,01,15,54,7.70
2008,04,01,15,55,7.70
2008,04,01,15,56,7.70
2008,04,01,15,57,7.70
2008,04,01,15,58,7.60
2008,04,01,15,59,7.60
2008,04,01,16,00,7.60
2008,04,01,16,01,7.60
2008,04,01,16,02,7.60
2008,04,01,16,03,7.60
2008,04,01,16,04,7.60
2008,04,01,16,05,7.60
2008,04,01,16,06,7.60
2008,04,01,16,07,7.60
2008,04,01,16,08,7.60
2008,04,01,16,09,7.60
2008,04,01,16,10,7.60
2008,04,01,16,11,7.60
2008,04,01,16,12,7.50
2008,04,01,16,13,7.50
2008,04,01,16,14,7.40
2008,04,01,16,15,7.40
2008,04,01,16,16,7.40
2008,04,01,16,17,7.40
2008,04,01,16,18,7.40
2008,04,01,16,19,7.40
2008,04,01,16,20,7.40
2008,04,01,16,21,7.40
2008,04,01,16,22,7.40
2008,04,01,16,23,7.50
2008,04,01,16,24,7.50
2008,04,01,16,25,7.50
2008,04,01,16,26,7.60
2008,04,01,16,27,7.60
2008,04,01,16,28,7.60
2008,04,01,16,29,7.50
2008,04,01,16,30,7.50
2008,04,01,16,31,7.50
2008,04,01,16,32,7.40
2008,04,01,16,33,7.40
2008,04,01,16,34,7.40
2008,04,01,16,35,7.40
2008,04,01,16,36,7.40
2008,04,01,16,37,7.50
2008,04,01,16,38,7.50
2008,04,01,16,39,7.50
2008,04,01,16,40,7.50
2008,04,01,16,41,7.40
2008,04,01,16,42,7.40
2008,04,01,16,43,7.40
2008,04,01,16,44,7.40
2008,04,01,16,45,7.40
2008,04,01,16,46,7.40
2008,04,01,16,47,7.40
2008,04,01,16,48,7.40
2008,04,01,16,49,7.40
2008,04,01,16,50,7.30
2008,04,01,16,51,7.30
2008,04,01,16,52,7.30
2008,04,01,16,53,7.30
2008,04,01,16,54,7.20
2008,04,01,16,55,7.20
2008,04,01,16,56,7.20
2008,04,01,16,57,7.20
2008,04,01,16,58,7.20
2008,04,01,16,59,7.20
2008,04,01,17,00,7.20
2008,04,01,17,01,7.20
2008,04,01,17,02,7.20
2008,04,01,17,03,7.20
2008,04,01,17,04,7.20
2008,04,01,17,05,7.20
2008,04,01,17,06,7.20
2008,04,01,17,07,7.20
2008,04,01,17,08,7.20
2008,04,01,17,09,7.20
2008,04,01,17,10,7.20
2008,04,01,17,11,7.20
2008,04,01,17,12,7.20
2008,04,01,17,13,7.20
2008,04,01,17,14,7.20
2008,04,01,17,15,7.20
2008,04,01,17,16,7.20
2008,04,01,17,17,7.20
2008,04,01,17,18,7.20
2008,04,01,17,19,7.20
2008,04,01,17,20,7.20
2008,04,01,17,21,7.20
2008,04,01,17,22,7.20
2008,04,01,17,23,7.20
2008,04,01,17,24,7.20
2008,04,01,17,25,7.20
2008,04,01,17,26,7.10
2008,04,01,17,27,7.10
2008,04,01,17,28,7.10
2008,04,01,17,29,7.10
2008,04,01,17,30,7.10
2008,04,01,17,31,7.10
2008,04,01,17,32,7.20
2008,04,01,17,33,7.20
2008,04,01,17,34,7.20
2008,04,01,17,35,7.20
2008,04,01,17,36,7.10
2008,04,01,17,37,7.10
2008,04,01,17,38,7.10
2008,04,01,17,39,7.10
2008,04,01,17,40,7.10
2008,04,01,17,41,7.10
2008,04,01,17,42,7.10
2008,04,01,17,43,7.10
2008,04,01,17,44,7.10
2008,04,01,17,45,7.10
2008,04,01,17,46,7.10
2008,04,01,17,47,7.10
2008,04,01,17,48,7.10
2008,04,01,17,49,7.10
2008,04,01,17,50,7.10
2008,04,01,17,51,7.10
2008,04,01,17,52,7.10
2008,04,01,17,53,7.10
2008,04,01,17,54,7.10
2008,04,01,17,55,7.10
2008,04,01,17,56,7.10
2008,04,01,17,57,7.10
2008,04,01,17,58,7.10
2008,04,01,17,59,7.10
2008,04,01,18,00,7.10
2008,04,01,18,01,7.10
2008,04,01,18,02,7.10
2008,04,01,18,03,7.10